Los Angeles, CA

4:56 AM PDT on August 28, 2016 (GMT -0700)
Los Angeles International

Weather History for KLAX - January, 2013

Change the Weather History Date:

Sunday, January 13, 2013

  Actual Average Record
Temperature  
Mean Temperature 48 °F 57 °F  
Max Temperature 56 °F 65 °F 83 °F (1975)
Min Temperature 39 °F 49 °F 30 °F (1963)
Degree Days  
Heating Degree Days 17 8  
Month to date heating degree days 151 115  
Since 1 July heating degree days 510 557  
Cooling Degree Days 0 0  
Month to date cooling degree days 0 0  
Year to date cooling degree days 0 0  
Moisture  
Dew Point 24 °F    
Average Humidity 37    
Maximum Humidity 54    
Minimum Humidity 20    
Precipitation  
Precipitation 0.00 in 0.09 in 0.93 in (1993)
Month to date precipitation 0.20 1.17  
Year to date precipitation 0.20 1.17  
Since 1 July precipitation 4.48  
Sea Level Pressure  
Sea Level Pressure 30.12 in    
Wind  
Wind Speed 6 mph (North)    
Max Wind Speed 14 mph    
Max Gust Speed 18 mph    
Visibility 10 miles    
Events      
T = Trace of Precipitation, MM = Missing Value Source: NWS Daily Summary

Daily Weather History Graph

Daily Weather History Graph

Search for Another Location

Airport or City:

Trip Planner

Search our weather history database for the weather conditions in past years. The results will help you decide how hot, cold, wet, or windy it might be!

Date:

Astronomy

Jan. 13, 2013 Rise Set
Actual Time 6:58 AM PST 5:06 PM PST
Civil Twilight 6:31 AM PST 5:33 PM PST
Nautical Twilight 6:01 AM PST 6:04 PM PST
Astronomical Twilight 5:30 AM PST 6:34 PM PST
Moon 8:08 AM PST (1/13) 7:40 PM PST (1/13)
Length of Visible Light 11h 01m
Length of Day
10h 07m
Waxing Crescent, 6% of the Moon is Illuminated
Jan 13
Waxing Crescent
Jan 18
First Quarter
Jan 26
Full
Feb 3
Last Quarter
Feb 9
New

Hourly Weather History & Observations

Time (PST) Temp. Windchill Dew Point Humidity Pressure Visibility Wind Dir Wind Speed Gust Speed Precip Events Conditions
12:53 AM 42.1 °F 39.2 °F 26.1 °F 53% 30.11 in 10.0 mi East 4.6 mph - N/A   Clear
1:53 AM 44.1 °F 40.8 °F 26.1 °F 49% 30.12 in 10.0 mi ENE 5.8 mph - N/A   Partly Cloudy
2:53 AM 43.0 °F 41.3 °F 26.1 °F 51% 30.12 in 10.0 mi NE 3.5 mph - N/A   Partly Cloudy
3:53 AM 43.0 °F 39.5 °F 24.1 °F 47% 30.12 in 10.0 mi ENE 5.8 mph - N/A   Clear
4:53 AM 43.0 °F 40.3 °F 24.1 °F 47% 30.12 in 10.0 mi NNE 4.6 mph - N/A   Clear
5:53 AM 39.9 °F 37.8 °F 24.1 °F 53% 30.14 in 10.0 mi NE 3.5 mph - N/A   Partly Cloudy
6:53 AM 42.1 °F 39.2 °F 23.0 °F 47% 30.15 in 10.0 mi NE 4.6 mph - N/A   Clear
7:53 AM 43.0 °F 38.8 °F 21.9 °F 43% 30.17 in 10.0 mi NE 6.9 mph - N/A   Clear
8:53 AM 48.0 °F - 19.0 °F 32% 30.18 in 10.0 mi Variable 4.6 mph - N/A   Clear
9:53 AM 51.1 °F - 18.0 °F 27% 30.18 in 10.0 mi NE 8.1 mph - N/A   Scattered Clouds
10:53 AM 54.0 °F - 17.1 °F 23% 30.16 in 10.0 mi NE 5.8 mph - N/A   Scattered Clouds
11:53 AM 55.9 °F - 16.0 °F 21% 30.11 in 10.0 mi Variable 3.5 mph - N/A   Scattered Clouds
12:53 PM 55.0 °F - 18.0 °F 23% 30.09 in 10.0 mi West 10.4 mph - N/A   Scattered Clouds
1:53 PM 54.0 °F - 21.0 °F 28% 30.09 in 10.0 mi WSW 10.4 mph - N/A   Mostly Cloudy
2:53 PM 54.0 °F - 28.0 °F 37% 30.08 in 10.0 mi SW 12.7 mph - N/A   Mostly Cloudy
3:53 PM 53.1 °F - 28.9 °F 40% 30.08 in 10.0 mi West 10.4 mph - N/A   Mostly Cloudy
4:53 PM 52.0 °F - 30.0 °F 43% 30.07 in 10.0 mi West 15.0 mph - N/A   Mostly Cloudy
5:53 PM 51.1 °F - 30.0 °F 44% 30.07 in 10.0 mi West 15.0 mph - N/A   Mostly Cloudy
6:53 PM 51.1 °F - 30.0 °F 44% 30.09 in 10.0 mi West 12.7 mph - N/A   Partly Cloudy
7:53 PM 48.9 °F - 26.1 °F 41% 30.09 in 10.0 mi NNW 4.6 mph - N/A   Clear
8:53 PM 50.0 °F - 26.1 °F 39% 30.09 in 10.0 mi NNW 5.8 mph - N/A   Clear
9:53 PM 46.9 °F - 19.9 °F 34% 30.11 in 10.0 mi Variable 5.8 mph - N/A   Partly Cloudy
10:53 PM 46.9 °F - 24.1 °F 41% 30.13 in 10.0 mi ENE 4.6 mph - N/A   Clear
11:53 PM 46.0 °F 43.1 °F 24.1 °F 42% 30.14 in 10.0 mi NNE 5.8 mph - N/A   Clear